Wind_Speed
4 10 14 12 6 6 2 10 10 5 7 5 7 11 20 12 23 18 12 12 15 18 14 16 16 16 17 14 14 12 12 7 12 13 16 18 17 17 14 14 17 16 16 14
2 9 7 2 6 4 5 9 3 7 4 6 5 6 21 18 18 18 16 14 12 17 18 13 14 15 16 11 9 12 10 5 10 13 14 16 16 17 16 16 15 15 16 15
13 10 2 2 1 4 3 6 7 3 3 4 8 11 15 23 13 22 19 14 12 12 19 18 12 12 13 10 9 10 10 5 7 10 14 17 19 21 19 18 15 12 16 17
8 8 6 1 2 3 5 5 2 4 6 9 13 15 24 23 19 14 24 19 14 13 14 13 11 9 10 6 8 9 10 10 9 9 12 14 15 16 15 15 12 12 17 18
7 4 4 1 3 5 2 6 7 11 10 10 15 15 13 28 29 12 25 25 26 26 29 25 20 11 8 6 5 8 9 9 12 11 10 11 14 15 15 15 15 14 18 21
7 3 5 3 4 7 13 15 14 10 9 12 19 15 17 37 36 22 20 24 25 22 22 18 26 23 18 13 8 6 9 9 10 10 11 13 12 13 15 16 18 17 18 21
4 6 5 5 9 6 5 9 6 3 4 9 8 12 5 16 22 17 15 14 19 15 10 5 15 16 16 24 24 16 14 9 11 12 13 12 14 16 17 18 19 18 16 17
8 14 7 6 4 3 3 4 5 3 3 10 15 12 22 22 23 27 28 26 24 21 25 22 17 10 7 17 31 31 28 25 22 17 16 18 15 15 16 16 17 18 17 16
10 7 8 8 4 4 3 2 6 8 10 6 6 21 20 26 27 26 24 23 18 14 17 17 16 17 16 5 18 25 14 31 30 30 29 21 21 21 22 21 19 20 19 19
7 1 6 2 7 5 2 6 4 4 4 4 6 11 14 23 22 19 16 14 14 13 11 9 12 13 13 16 19 23 24 29 21 30 32 29 23 22 25 26 25 24 22 22
3 0 4 1 9 0 3 4 1 6 4 0 3 9 32 24 17 13 10 7 8 11 9 13 14 15 17 21 22 18 24 16 23 23 20 20 13 19 23 30 29 28 27 26
2 3 10 10 3 4 7 7 6 4 7 13 10 12 14 15 17 11 6 6 10 14 17 23 25 25 24 21 23 20 18 30 31 33 32 32 19 20 23 27 32 31 31 29
4 1 5 7 6 8 6 4 2 4 7 11 3 13 15 13 7 6 4 7 7 10 15 21 29 32 30 24 20 22 24 25 30 34 33 32 27 29 28 25 29 34 33 34
10 5 6 7 9 10 8 7 6 7 9 10 11 8 19 17 11 13 18 13 12 11 12 13 24 35 36 31 27 29 24 23 31 30 36 34 37 33 33 29 28 31 36 36
5 3 4 9 11 11 10 10 12 13 14 15 18 17 13 10 5 9 15 13 14 16 19 22 25 33 40 38 32 26 29 25 27 33 33 34 37 39 39 40 36 31 33 39
5 5 8 10 10 14 14 11 13 15 14 16 17 9 9 9 8 12 17 23 26 25 24 22 26 30 35 45 44 36 33 32 28 31 36 36 39 40 39 42 42 39 36 39
5 7 9 9 10 12 11 7 4 3 0 4 5 10 18 19 19 23 25 23 30 34 35 38 41 44 45 45 49 51 45 36 34 32 33 39 40 45 44 45 46 45 47 39
8 7 8 11 9 4 4 2 3 1 4 7 10 17 21 27 31 35 32 39 39 33 37 39 41 47 49 47 42 45 42 36 35 35 34 35 41 47 48 48 43 47 47 47
5 8 7 3 10 12 8 6 4 4 7 14 21 27 32 37 37 34 35 38 41 43 42 46 47 48 53 54 51 49 45 38 35 37 36 36 37 42 46 51 48 43 50 49
6 7 9 7 4 3 3 2 1 3 9 13 15 21 27 34 42 46 49 52 49 48 48 46 50 55 57 57 58 60 46 44 40 39 38 37 37 40 42 46 50 47 46 50
6 8 9 9 12 8 5 9 13 8 7 17 21 31 39 41 44 47 46 46 45 45 45 43 40 46 52 54 56 54 43 39 41 41 40 38 36 38 40 40 43 43 42 44
7 6 8 9 12 2 12 16 14 14 19 24 31 33 38 42 43 42 45 46 46 45 39 37 39 38 41 41 39 41 40 35 40 40 40 39 36 36 38 37 39 39 40 43
7 12 13 8 6 13 13 14 15 19 20 29 33 40 40 39 41 44 48 51 47 46 46 43 41 38 35 36 39 41 40 38 40 40 39 38 35 35 35 38 37 39 34 33
5 10 10 10 11 14 18 19 25 31 35 29 37 34 36 35 35 46 46 43 37 33 32 32 38 43 40 42 40 39 40 42 41 39 38 35 34 34 34 37 37 35 36 36
9 12 11 11 20 23 25 20 25 29 25 30 28 28 28 30 35 52 37 29 27 29 29 30 26 35 41 39 41 43 46 42 37 37 34 33 32 34 33 35 38 36 33 32
11 13 16 19 25 28 25 17 22 26 25 24 31 26 24 29 36 39 25 20 27 29 24 20 20 29 30 31 27 33 36 26 27 29 29 28 27 29 27 31 34 36 35 36
Wind_Direction
183 272 284 332 206 188 137 324 182 207 177 175 219 225 199 196 199 212 223 212 206 210 222 223 229 215 214 225 229 231 245 202 198 209 222 219 217 222 228 224 209 210 205 204
218 235 303 193 123 74 359 342 220 165 75 182 187 173 218 219 203 219 232 232 222 204 222 234 231 222 223 216 217 214 241 227 194 203 208 224 218 226 221 225 229 210 207 213
246 289 265 211 352 337 277 308 356 125 170 274 246 269 197 219 210 208 228 242 236 217 218 238 244 244 235 217 203 207 214 193 191 201 210 212 215 222 227 230 223 212 212 215
274 212 214 174 274 307 351 356 6 339 342 303 303 297 241 210 193 198 218 230 233 219 235 250 256 261 256 238 216 212 214 213 210 206 211 223 222 232 239 243 238 215 221 222
224 111 89 108 261 231 221 336 287 264 275 300 281 294 294 208 190 225 205 210 198 190 200 210 244 295 286 276 236 231 231 216 230 222 218 222 226 222 229 238 245 229 222 227
252 296 175 256 241 235 254 278 284 276 265 265 249 256 306 191 195 191 206 209 207 208 205 227 211 231 260 298 329 320 270 254 237 244 235 222 219 232 237 231 240 242 232 234
212 255 247 280 252 258 353 322 280 279 230 226 294 253 124 131 164 168 165 139 94 106 73 69 210 225 234 245 264 308 331 333 290 270 258 240 237 243 245 245 240 237 237 234
229 156 170 94 92 75 118 13 344 304 352 284 24 119 117 135 140 128 116 104 95 83 78 78 87 124 242 236 245 245 263 284 304 325 307 281 258 246 238 247 256 255 241 229
43 98 135 153 322 298 129 340 324 308 319 310 104 109 123 130 132 136 140 145 130 134 143 102 80 81 79 66 241 236 273 265 261 284 299 300 285 265 253 253 248 254 257 248
36 2 203 204 353 34 237 314 310 352 10 338 87 128 167 136 133 140 146 165 157 167 184 183 177 166 179 202 234 233 228 254 265 263 272 270 276 280 264 258 253 246 243 254
249 288 123 145 327 21 193 25 360 306 293 109 33 34 148 139 148 147 146 173 199 213 230 238 236 239 252 259 254 250 245 240 255 267 266 285 266 276 277 261 257 253 247 241
74 246 292 259 285 183 259 287 311 340 313 330 357 107 122 113 78 71 39 336 322 309 296 291 286 283 288 286 267 259 266 251 249 262 257 258 258 266 285 272 258 254 254 247
195 198 339 269 202 87 54 29 11 285 278 292 325 137 112 83 67 56 26 352 325 298 290 287 288 286 284 287 290 280 270 259 253 262 268 260 260 251 271 284 262 254 251 251
246 241 301 313 338 335 336 305 308 306 310 308 275 267 338 358 339 306 291 273 253 251 251 256 267 283 285 289 295 291 278 272 258 253 261 259 254 254 252 267 273 256 254 253
244 231 296 297 301 323 320 305 291 287 281 283 281 311 27 29 348 285 286 269 249 257 260 260 267 278 291 295 291 287 280 273 269 255 250 254 255 249 253 255 257 259 252 251
63 302 299 293 308 308 307 291 280 264 273 276 275 265 338 331 311 301 291 282 281 278 277 276 275 281 289 293 295 289 287 273 268 266 251 247 250 253 253 260 262 259 255 246
248 290 313 295 301 312 304 285 290 225 54 325 6 332 299 289 281 294 307 305 300 300 297 292 289 288 292 292 294 292 286 276 266 264 260 249 246 251 252 256 262 261 260 258
270 287 280 280 300 270 304 254 254 214 284 301 291 286 297 299 300 302 300 295 294 293 292 288 288 289 287 283 281 282 278 271 270 265 262 257 250 246 248 251 255 261 265 247
250 250 277 300 292 285 292 316 289 228 256 274 266 276 288 291 295 296 294 295 295 294 290 284 280 281 286 286 286 283 278 274 272 267 265 261 256 253 249 246 251 257 257 257
260 243 248 262 317 294 102 2 2 265 261 269 279 286 297 306 306 302 301 299 294 288 287 281 272 271 274 275 279 282 283 282 274 271 263 262 258 255 254 251 247 251 258 262
236 219 238 257 252 252 259 284 294 290 268 281 295 302 307 307 306 305 306 304 301 296 292 289 285 276 274 274 275 278 282 277 270 263 266 262 259 257 254 255 248 247 253 259
227 223 260 285 300 234 309 304 307 288 279 293 299 300 305 309 308 305 303 301 296 291 290 286 283 279 280 276 277 277 276 273 266 262 262 264 260 255 252 253 249 248 251 256
255 253 249 262 254 292 300 280 275 279 293 299 305 309 311 312 310 308 305 303 296 289 287 279 277 278 281 280 278 276 275 271 265 263 261 264 259 254 251 247 247 251 244 250
246 254 257 264 274 271 281 284 283 287 292 306 310 312 316 320 320 324 314 308 308 307 299 289 272 270 275 281 279 277 276 270 267 262 261 264 262 249 247 243 242 244 249 251
292 297 294 273 265 271 261 264 278 282 308 315 316 317 320 332 330 343 336 336 336 340 334 313 289 284 282 284 278 276 276 270 265 263 262 262 261 249 243 241 239 241 244 245
280 302 291 294 294 301 302 293 292 310 314 313 323 318 319 332 342 352 7 28 29 24 6 330 306 291 291 294 282 296 284 276 259 253 254 255 252 245 246 244 241 243 242 247
Height
3176 3178 3176 3178 3175 3177 3178 3177 3178 3181 3181 3181 3180 3181 3180 3183 3185 3186 3187 3188 3190 3191 3194 3196 3197 3198 3199 3200 3202 3203 3205 3208 3209 3212 3214 3216 3219 3222 3225 3228 3232 3234 3235 3237
3177 3175 3176 3177 3176 3177 3177 3176 3178 3179 3180 3181 3180 3181 3179 3180 3182 3183 3184 3186 3189 3191 3192 3195 3197 3197 3198 3200 3201 3202 3203 3206 3208 3209 3212 3215 3219 3220 3223 3225 3229 3233 3235 3236
3173 3176 3174 3175 3176 3177 3178 3177 3177 3179 3179 3179 3179 3178 3179 3179 3183 3185 3184 3186 3188 3190 3191 3194 3198 3199 3199 3200 3201 3202 3203 3205 3206 3207 3209 3212 3215 3217 3219 3222 3226 3230 3233 3234
3172 3172 3173 3174 3176 3178 3177 3176 3175 3176 3178 3176 3177 3174 3172 3174 3178 3179 3182 3184 3188 3190 3191 3194 3198 3200 3200 3201 3203 3203 3203 3204 3205 3206 3208 3211 3214 3216 3219 3221 3223 3227 3230 3232
3172 3169 3171 3173 3174 3175 3175 3174 3175 3175 3175 3176 3170 3172 3167 3168 3173 3178 3180 3181 3187 3188 3189 3193 3203 3203 3203 3203 3204 3205 3205 3205 3205 3206 3206 3209 3212 3214 3216 3217 3220 3222 3226 3228
3169 3169 3171 3171 3172 3174 3174 3174 3174 3173 3174 3172 3165 3170 3163 3163 3169 3174 3178 3181 3184 3185 3187 3190 3199 3203 3207 3205 3206 3207 3208 3207 3206 3205 3205 3206 3209 3213 3214 3214 3215 3219 3222 3225
3167 3169 3169 3171 3171 3174 3174 3175 3174 3173 3173 3169 3163 3169 3170 3166 3170 3174 3179 3178 3185 3190 3191 3184 3191 3199 3203 3203 3204 3206 3208 3209 3208 3207 3204 3204 3206 3207 3210 3213 3213 3214 3217 3221
3166 3169 3169 3171 3172 3173 3174 3175 3176 3178 3175 3165 3159 3167 3174 3170 3171 3172 3176 3180 3185 3187 3187 3189 3192 3193 3196 3195 3196 3201 3204 3205 3206 3207 3206 3204 3204 3204 3206 3208 3210 3211 3213 3215
3166 3168 3169 3170 3172 3174 3174 3175 3175 3174 3170 3167 3168 3173 3178 3176 3177 3177 3178 3181 3184 3187 3190 3191 3190 3193 3193 3197 3198 3197 3196 3200 3199 3200 3202 3202 3202 3203 3204 3204 3205 3206 3208 3211
3168 3169 3169 3170 3172 3173 3174 3175 3175 3174 3176 3174 3174 3175 3176 3177 3177 3178 3178 3180 3182 3184 3187 3188 3190 3192 3195 3195 3191 3191 3194 3191 3192 3192 3193 3194 3197 3199 3200 3201 3201 3202 3203 3204
3168 3170 3172 3171 3171 3172 3174 3175 3175 3175 3176 3176 3180 3181 3175 3177 3177 3178 3179 3181 3182 3183 3184 3184 3185 3187 3191 3193 3193 3191 3188 3186 3185 3186 3186 3189 3189 3193 3195 3196 3196 3197 3198 3199
3168 3169 3168 3170 3172 3172 3172 3174 3175 3176 3176 3177 3179 3184 3184 3180 3180 3180 3180 3181 3181 3181 3180 3179 3179 3180 3182 3185 3186 3184 3181 3179 3179 3179 3182 3181 3182 3185 3189 3189 3191 3191 3192 3194
3168 3170 3169 3167 3172 3171 3172 3173 3174 3176 3177 3177 3182 3186 3182 3180 3178 3179 3179 3179 3178 3176 3174 3172 3169 3169 3171 3174 3176 3176 3173 3172 3171 3170 3171 3171 3171 3176 3181 3183 3184 3184 3185 3187
3167 3169 3170 3172 3173 3172 3171 3170 3172 3174 3175 3176 3177 3181 3175 3176 3175 3176 3175 3174 3172 3170 3168 3166 3163 3162 3163 3167 3169 3168 3167 3164 3162 3163 3162 3164 3166 3167 3171 3174 3176 3177 3177 3178
3165 3166 3168 3167 3167 3168 3170 3171 3170 3172 3173 3174 3174 3174 3173 3172 3171 3170 3167 3168 3169 3168 3165 3162 3159 3156 3155 3156 3163 3162 3161 3159 3156 3155 3155 3156 3157 3160 3160 3163 3165 3165 3167 3168
3164 3166 3166 3166 3167 3167 3167 3167 3167 3168 3169 3169 3169 3168 3166 3167 3167 3166 3164 3162 3161 3160 3158 3158 3155 3151 3149 3146 3148 3152 3154 3152 3150 3148 3148 3148 3149 3150 3152 3151 3152 3155 3153 3154
3162 3163 3164 3164 3165 3165 3165 3164 3162 3163 3162 3162 3162 3163 3160 3161 3162 3162 3160 3157 3155 3152 3149 3147 3146 3145 3140 3138 3135 3138 3141 3142 3140 3138 3138 3138 3138 3138 3141 3143 3140 3140 3143 3144
3161 3162 3163 3163 3163 3164 3162 3158 3157 3160 3159 3158 3160 3158 3156 3155 3158 3159 3156 3152 3148 3146 3144 3139 3134 3132 3131 3128 3126 3124 3127 3129 3128 3128 3127 3126 3126 3126 3128 3129 3129 3130 3130 3101
3159 3160 3161 3161 3161 3161 3158 3155 3155 3156 3157 3155 3154 3153 3153 3151 3151 3152 3149 3148 3144 3139 3136 3131 3127 3123 3121 3118 3116 3113 3114 3116 3116 3115 3115 3114 3114 3114 3115 3116 3116 3118 3122 3125
3157 3158 3160 3160 3161 3160 3159 3156 3154 3154 3155 3152 3151 3149 3148 3145 3140 3138 3137 3133 3129 3125 3122 3119 3115 3110 3108 3107 3103 3098 3103 3102 3103 3102 3102 3102 3102 3101 3102 3103 3104 3105 3105 3106
3155 3156 3157 3157 3158 3158 3155 3153 3151 3153 3154 3148 3148 3145 3142 3140 3136 3129 3124 3119 3116 3112 3107 3103 3101 3098 3093 3092 3090 3089 3090 3088 3086 3087 3088 3089 3091 3091 3091 3092 3094 3095 3097 3098
3152 3153 3154 3154 3155 3154 3151 3150 3149 3148 3145 3145 3144 3142 3138 3132 3125 3120 3114 3107 3102 3098 3095 3092 3086 3084 3082 3079 3077 3076 3075 3074 3072 3073 3075 3076 3079 3080 3081 3082 3085 3087 3089 3090
3150 3151 3153 3154 3153 3152 3149 3146 3142 3140 3140 3139 3137 3132 3128 3124 3117 3109 3102 3093 3086 3081 3077 3077 3073 3071 3070 3067 3065 3062 3062 3061 3059 3060 3062 3063 3066 3068 3070 3072 3076 3078 3081 3082
3149 3149 3149 3150 3149 3148 3147 3145 3140 3138 3137 3135 3130 3126 3123 3117 3110 3099 3087 3077 3071 3065 3062 3059 3058 3058 3058 3057 3054 3050 3049 3047 3046 3047 3050 3052 3053 3056 3059 3062 3066 3069 3072 3074
3148 3147 3145 3145 3141 3141 3137 3138 3138 3136 3134 3129 3125 3121 3118 3112 3103 3092 3079 3072 3066 3061 3055 3050 3046 3045 3044 3044 3041 3039 3036 3034 3034 3035 3038 3041 3043 3045 3048 3051 3055 3060 3063 3065
3144 3144 3143 3141 3138 3136 3133 3131 3128 3130 3129 3125 3119 3116 3113 3107 3100 3092 3083 3073 3067 3063 3056 3051 3044 3039 3036 3035 3032 3029 3021 3022 3022 3023 3027 3030 3033 3036 3040 3042 3046 3050 3054 3058